"2016-02-07 00:00:00",1352091,14.22,319,7.487,1.496,14.68,103.681,8.7,9.96,18.79,0,110.3,13.19,9.48,281.0
"2016-02-07 00:00:30",1352092,13.12,324.3,8.73,1.565,14.36,103.6619,8.65,9.98,19.03,0,110.3,13.18,9.43,286.3
"2016-02-07 00:01:00",1352093,13.49,323.4,7.923,2.111,14.52,103.6573,8.64,9.94,19.17,0,110.3,13.18,9.42,285.4
"2016-02-07 00:01:30",1352094,14.97,324.9,7.703,1.623,14.24,103.6525,8.63,9.86,18.93,0,110.2,13.18,9.41,286.9
"2016-02-07 00:02:00",1352095,15.38,326.2,7.202,1.367,14.38,103.6344,8.58,9.92,18.93,0,110.2,13.19,9.36,288.2
"2016-02-07 00:02:30",1352096,14.64,321.5,6.773,1.484,13.53,103.6234,8.55,9.77,18.17,0,110.2,13.18,9.33,283.5
"2016-02-07 00:03:00",1352097,15.22,327.1,6.35,1.312,15.54,103.6234,8.55,9.82,17.83,0,110.2,13.19,9.33,289.1
"2016-02-07 00:03:30",1352098,14.55,322.6,7.923,1.479,14.18,103.6234,8.55,9.8,17.76,0,110.3,13.19,9.33,284.6
"2016-02-07 00:04:00",1352099,15.38,322.6,7.718,1.384,14.42,103.6232,8.55,9.78,18.32,0,110.3,13.19,9.33,284.6
"2016-02-07 00:04:30",1352100,15.26,322.1,7.596,1.477,15.12,103.6223,8.55,9.78,18.27,0,110.2,13.19,9.33,284.1
"2016-02-07 00:05:00",1352101,15.16,327.3,7.381,1.65,14.37,103.6181,8.54,9.81,18.47,0,110.2,13.18,9.32,289.3
"2016-02-07 00:05:30",1352102,14.7,328.6,7.737,1.4,14.21,103.6096,8.52,9.8,19.42,0,110.3,13.19,9.30,290.6
"2016-02-07 00:06:00",1352103,16.59,324.5,7.447,1.741,14.69,103.6045,8.5,9.77,18.73,0,110.2,13.19,9.28,286.5
"2016-02-07 00:06:30",1352104,19.54,321.2,7.233,1.392,15.28,103.5986,8.49,9.79,17.77,0,110.2,13.18,9.27,283.2
"2016-02-07 00:07:00",1352105,18.95,322.1,7.141,1.388,15.33,103.5916,8.47,9.78,17.52,0,110.2,13.18,9.25,284.1
"2016-02-07 00:07:30",1352106,18.36,321.8,6.688,1.235,15.31,103.5907,8.47,9.78,17.79,0,110.2,13.18,9.25,283.8
"2016-02-07 00:08:00",1352107,17.57,319.8,6.653,1.259,15.55,103.594,8.48,9.75,17.42,0,110.2,13.18,9.26,281.8
"2016-02-07 00:08:30",1352108,18.2,322.1,6.655,1.533,15.49,103.5957,8.48,9.75,17.3,0,110.2,13.18,9.26,284.1
"2016-02-07 00:09:00",1352109,18.25,322.6,6.808,1.462,15.59,103.5977,8.49,9.74,17.26,0,110.2,13.18,9.27,284.6
"2016-02-07 00:09:30",1352110,19.02,322.2,6.491,1.266,15.43,103.6068,8.51,9.78,17.44,0,110.2,13.18,9.29,284.2
"2016-02-07 00:10:00",1352111,18.3,323.4,6.273,1.279,15.49,103.6142,8.53,9.77,17.38,0,110.2,13.18,9.31,285.4
"2016-02-07 00:10:30",1352112,18.15,322.4,6.443,1.327,15.12,103.618,8.54,9.76,17.35,0,110.2,13.18,9.32,284.4
"2016-02-07 00:11:00",1352113,17.78,322.8,7.046,1.323,15.01,103.6168,8.53,9.77,17.37,0,110.2,13.18,9.32,284.8
"2016-02-07 00:11:30",1352114,18.51,324.6,6.806,1.322,15.29,103.6186,8.54,9.76,17.35,0,110.2,13.18,9.32,286.6
"2016-02-07 00:12:00",1352115,17.97,323.1,6.998,1.672,15.42,103.6221,8.55,9.74,17.29,0,110.2,13.19,9.33,285.1
"2016-02-07 00:12:30",1352116,18.4,324.2,6.857,1.483,15.73,103.6253,8.56,9.78,17.29,0,110.2,13.19,9.34,286.2
"2016-02-07 00:13:00",1352117,17.57,326,6.785,1.419,15.68,103.6301,8.57,9.8,17.28,0,110.2,13.19,9.35,288.0
"2016-02-07 00:13:30",1352118,18.33,319.8,6.829,1.291,15.36,103.6384,8.59,9.78,17.11,0,110.2,13.19,9.37,281.8
"2016-02-07 00:14:00",1352119,18.08,317.8,6.894,1.195,15.2,103.6475,8.61,9.79,17.01,0,110.2,13.19,9.39,279.8
"2016-02-07 00:14:30",1352120,17.48,320.3,6.314,1.462,15.17,103.6498,8.62,9.8,16.93,0,110.2,13.19,9.40,282.3
"2016-02-07 00:15:00",1352121,18.55,319.1,7.088,1.23,14.51,103.6495,8.62,9.77,16.98,0,110.2,13.19,9.40,281.1
"2016-02-07 00:15:30",1352122,18.03,317.5,6.59,1.383,14.67,103.649,8.62,9.81,17.47,0,110.2,13.19,9.40,279.5
"2016-02-07 00:16:00",1352123,18.89,318.3,6.584,1.361,14.38,103.6355,8.58,9.82,17.35,0,110.2,13.19,9.36,280.3
"2016-02-07 00:16:30",1352124,19.88,317.5,6.901,1.277,14.97,103.6243,8.55,9.77,17.09,0,110.2,13.19,9.34,279.5
"2016-02-07 00:17:00",1352125,20.16,318.2,6.675,1.257,14.94,103.6172,8.54,9.77,16.94,0,110.2,13.19,9.32,280.2
"2016-02-07 00:17:30",1352126,19.51,317.7,6.59,1.409,14.51,103.5963,8.48,9.75,17.16,0,110.2,13.19,9.26,279.7
"2016-02-07 00:18:00",1352127,18.71,318.4,6.702,1.264,14.94,103.5896,8.46,9.7,17.15,0,110.2,13.19,9.25,280.4
"2016-02-07 00:18:30",1352128,18.34,317.5,6.157,1.312,14.98,103.5766,8.43,9.69,17.01,0,110.2,13.19,9.21,279.5
"2016-02-07 00:19:00",1352129,18.24,318,6.323,1.331,14.71,103.5592,8.39,9.67,16.97,0,110.2,13.2,9.17,280.0
"2016-02-07 00:19:30",1352130,19.34,317.2,6.406,1.238,14.57,103.551,8.37,9.66,16.98,0,110.2,13.19,9.15,279.2
"2016-02-07 00:20:00",1352131,18.54,316.6,6.726,1.258,14.58,103.5275,8.31,9.61,16.93,0,110.2,13.2,9.09,278.6
"2016-02-07 00:20:30",1352132,17.89,315.9,6.248,1.321,14.83,103.523,8.29,9.56,16.91,0,110.2,13.2,9.08,277.9
"2016-02-07 00:21:00",1352133,18.01,319.7,6.446,1.291,14.43,103.5109,8.26,9.57,16.99,0,110.2,13.2,9.04,281.7
"2016-02-07 00:21:30",1352134,18.37,317.3,6.553,1.336,14.8,103.4945,8.22,9.55,16.96,0,110.2,13.2,9.00,279.3
"2016-02-07 00:22:00",1352135,17.67,318.2,6.641,1.739,14.81,103.4892,8.21,9.52,16.87,0,110.2,13.2,8.99,280.2
"2016-02-07 00:22:30",1352136,19.13,318.4,7.015,1.403,14.93,103.4866,8.2,9.47,16.96,0,110.2,13.2,8.98,280.4
"2016-02-07 00:23:00",1352137,19.22,320.2,8.21,1.374,14.86,103.4748,8.17,9.47,16.94,0,110.2,13.2,8.95,282.2
"2016-02-07 00:23:30",1352138,19.7,319.5,6.992,1.684,15.15,103.4722,8.16,9.46,16.93,0,110.2,13.19,8.95,281.5
"2016-02-07 00:24:00",1352139,19.87,314.9,6.374,1.362,15.05,103.47,8.16,9.46,16.8,0,110.2,13.19,8.94,276.9
"2016-02-07 00:24:30",1352140,18.77,318,6.412,1.392,14.22,103.4652,8.15,9.44,16.84,0,110.2,13.2,8.93,280.0
"2016-02-07 00:25:00",1352141,18.75,318.6,6.264,1.169,14.12,103.4558,8.12,9.41,17.6,0,110.2,13.2,8.90,280.6
"2016-02-07 00:25:30",1352142,18.12,318.8,6.494,1.258,14.65,103.4553,8.12,9.4,17.21,0,110.2,13.2,8.90,280.8
"2016-02-07 00:26:00",1352143,17.59,317.1,6.82,1.336,14.67,103.4457,8.1,9.36,17.03,0,110.2,13.2,8.88,279.1
"2016-02-07 00:26:30",1352144,17.09,319.1,6.567,1.353,14.92,103.4355,8.07,9.38,17.16,0,110.2,13.2,8.85,281.1
"2016-02-07 00:27:00",1352145,16.76,320.8,6.284,1.325,15.15,103.4231,8.04,9.38,17.19,0,110.1,13.2,8.82,282.8
"2016-02-07 00:27:30",1352146,17.02,318.3,6.546,1.303,14.37,103.4214,8.03,9.34,17.14,0,110.1,13.2,8.81,280.3
"2016-02-07 00:28:00",1352147,16.84,320.5,6.041,1.263,14.68,103.4214,8.03,9.32,17.18,0,110.1,13.2,8.81,282.5
"2016-02-07 00:28:30",1352148,16.96,321.7,7.226,1.231,14.63,103.4141,8.02,9.29,17.18,0,110.1,13.2,8.80,283.7
"2016-02-07 00:29:00",1352149,17,324.2,6.642,1.376,14.74,103.4071,7.998,9.25,17.15,0,110.1,13.21,8.78,286.2
"2016-02-07 00:29:30",1352150,16.75,327.4,6.398,1.394,15.11,103.3986,7.976,9.29,17.25,0,110.1,13.21,8.76,289.4
"2016-02-07 00:30:00",1352151,16.39,324.1,6.664,1.477,14.98,103.3985,7.976,9.3,17.26,0,110.1,13.21,8.76,286.1
"2016-02-07 00:30:30",1352152,16.93,326.3,6.444,1.302,14.72,103.3991,7.977,9.28,17.26,0,110.1,13.21,8.76,288.3
"2016-02-07 00:31:00",1352153,15.7,327,8.52,1.377,14.97,103.3971,7.973,9.27,17.31,0,110.1,13.21,8.75,289.0
"2016-02-07 00:31:30",1352154,16.8,322.4,7.379,1.409,14.35,103.4001,7.98,9.25,17.34,0,110.1,13.21,8.76,284.4
"2016-02-07 00:32:00",1352155,17.05,325.1,6.447,1.382,14.69,103.3983,7.976,9.27,17.25,0,110.1,13.21,8.76,287.1
"2016-02-07 00:32:30",1352156,17.7,325,6.357,1.279,14.53,103.3998,7.979,9.27,17.31,0,110.1,13.21,8.76,287.0
"2016-02-07 00:33:00",1352157,17.05,324.1,6.855,1.291,14.9,103.4033,7.988,9.23,17.29,0,110.1,13.21,8.77,286.1
"2016-02-07 00:33:30",1352158,17.08,323.1,6.363,1.289,14.71,103.4024,7.986,9.26,17.28,0,110.1,13.21,8.77,285.1
"2016-02-07 00:34:00",1352159,16.44,323.6,6.884,1.288,14.62,103.4042,7.991,9.24,17.27,0,110.1,13.21,8.77,285.6
"2016-02-07 00:34:30",1352160,16.92,324.5,6.807,1.422,14.58,103.4056,7.994,9.24,17.34,0,110.1,13.21,8.77,286.5
"2016-02-07 00:35:00",1352161,16.51,326.7,6.484,1.567,14.78,103.408,8,9.24,17.42,0,110.1,13.21,8.78,288.7
"2016-02-07 00:35:30",1352162,17.07,325.2,6.667,1.158,14.58,103.4032,7.988,9.2,17.33,0,110.1,13.21,8.77,287.2
"2016-02-07 00:36:00",1352163,17.01,326.3,6.511,1.209,14.94,103.4021,7.985,9.2,17.31,0,110.1,13.21,8.77,288.3
"2016-02-07 00:36:30",1352164,15.72,332.5,6.846,1.38,15.22,103.4033,7.988,9.24,17.41,0,110.1,13.21,8.77,294.5
"2016-02-07 00:37:00",1352165,14.96,334.3,6.861,1.538,15.49,103.4067,7.997,9.22,17.51,0,110.1,13.21,8.78,296.3
"2016-02-07 00:37:30",1352166,14.68,333.6,6.769,1.65,15.15,103.4135,8.01,9.22,17.5,0,110.1,13.21,8.79,295.6
"2016-02-07 00:38:00",1352167,15.39,331.4,6.158,1.245,15,103.4135,8.01,9.22,17.34,0,110.1,13.21,8.79,293.4
"2016-02-07 00:38:30",1352168,15.62,325.5,7.252,1.32,14.23,103.4159,8.02,9.21,17.14,0,110.1,13.21,8.80,287.5
"2016-02-07 00:39:00",1352169,16.11,324.4,6.54,1.278,14.84,103.4158,8.02,9.26,17.13,0,110.1,13.21,8.80,286.4
"2016-02-07 00:39:30",1352170,15.81,327.4,6.538,1.241,14.89,103.4227,8.04,9.28,17.08,0,110.1,13.21,8.82,289.4
"2016-02-07 00:40:00",1352171,15.17,324.8,6.781,1.423,14.52,103.4303,8.06,9.27,17.03,0,110.1,13.21,8.84,286.8
"2016-02-07 00:40:30",1352172,15.97,323.2,6.397,1.462,14.42,103.4351,8.07,9.26,17,0,110.1,13.21,8.85,285.2
"2016-02-07 00:41:00",1352173,17.03,320.7,7.176,1.277,14.42,103.4346,8.07,9.27,16.93,0,110.1,13.21,8.85,282.7
"2016-02-07 00:41:30",1352174,15.97,320.2,7.369,1.265,14.48,103.4296,8.06,9.27,16.85,0,110.1,13.21,8.84,282.2
"2016-02-07 00:42:00",1352175,17.28,318.1,6.66,1.47,14.57,103.4234,8.04,9.26,16.9,0,110.1,13.21,8.82,280.1
"2016-02-07 00:42:30",1352176,17.73,320.6,6.082,1.247,14.61,103.4214,8.03,9.29,16.98,0,110.2,13.21,8.81,282.6
"2016-02-07 00:43:00",1352177,17.07,320.1,6.623,1.252,14.31,103.4214,8.03,9.27,16.95,0,110.1,13.21,8.81,282.1
"2016-02-07 00:43:30",1352178,17.41,319.6,6.651,1.237,14.3,103.4093,8,9.27,16.95,0,110.1,13.21,8.78,281.6
"2016-02-07 00:44:00",1352179,17.44,316.6,6.837,1.362,14.32,103.4008,7.982,9.21,16.87,0,110.1,13.21,8.76,278.6
"2016-02-07 00:44:30",1352180,16.73,315.1,7.156,1.377,14.37,103.389,7.952,9.19,16.76,0,110.1,13.21,8.73,277.1
"2016-02-07 00:45:00",1352181,16.36,320.3,6.702,1.419,14.72,103.3887,7.951,9.23,16.84,0,110.1,13.21,8.73,282.3
"2016-02-07 00:45:30",1352182,16.21,319.6,6.289,1.328,14.55,103.3825,7.935,9.2,16.87,0,110.1,13.21,8.71,281.6
"2016-02-07 00:46:00",1352183,16.91,318.9,6.676,1.265,14.36,103.372,7.908,9.19,16.98,0,110.1,13.21,8.69,280.9
"2016-02-07 00:46:30",1352184,17.29,316.9,6.4,1.375,14.19,103.3641,7.888,9.15,17,0,110.1,13.21,8.67,278.9
"2016-02-07 00:47:00",1352185,16.9,314.2,7.364,1.303,14.03,103.3548,7.864,9.14,17.07,0,110.1,13.22,8.64,276.2
"2016-02-07 00:47:30",1352186,16.38,323.6,6.233,1.291,14.57,103.3548,7.864,9.14,17.15,0,110.1,13.22,8.64,285.6
"2016-02-07 00:48:00",1352187,15.51,325.7,6.324,1.358,14.53,103.346,7.842,9.12,17.17,0,110.1,13.22,8.62,287.7
"2016-02-07 00:48:30",1352188,15.85,324.8,7.038,1.322,14.43,103.3359,7.816,9.07,17.2,0,110.1,13.22,8.60,286.8
"2016-02-07 00:49:00",1352189,15.53,322.2,6.86,1.239,14.47,103.3223,7.781,9.1,17.28,0,110.1,13.22,8.56,284.2
"2016-02-07 00:49:30",1352190,15.96,322,6.558,1.301,14.09,103.3209,7.778,9.07,17.36,0,110.1,13.22,8.56,284.0
"2016-02-07 00:50:00",1352191,14.98,323.1,6.742,1.361,14.45,103.3209,7.778,9.03,17.37,0,110.1,13.22,8.56,285.1
"2016-02-07 00:50:30",1352192,15.48,324,7.136,1.397,14.68,103.313,7.758,9.04,17.42,0,110.1,13.22,8.54,286.0
"2016-02-07 00:51:00",1352193,15.47,326.4,6.726,1.341,14.36,103.3042,7.735,9.05,17.41,0,110.1,13.22,8.51,288.4
"2016-02-07 00:51:30",1352194,15.47,326.8,6.336,1.292,14.55,103.2949,7.711,9.02,17.38,0,110.1,13.22,8.49,288.8
"2016-02-07 00:52:00",1352195,15.15,326,7.306,1.338,14.52,103.2879,7.693,8.99,17.41,0,110.1,13.22,8.47,288.0
"2016-02-07 00:52:30",1352196,15.15,329.2,6.866,1.356,14.62,103.287,7.691,8.98,17.48,0,110.1,13.22,8.47,291.2
"2016-02-07 00:53:00",1352197,15.33,328.2,6.089,1.17,14.52,103.287,7.691,8.98,17.45,0,110.1,13.22,8.47,290.2
"2016-02-07 00:53:30",1352198,14.51,331.4,6.422,1.247,14.76,103.2873,7.692,8.99,17.48,0,110.1,13.22,8.47,293.4
"2016-02-07 00:54:00",1352199,14.2,330,6.951,1.323,14.07,103.287,7.691,8.99,17.52,0,110.1,13.22,8.47,292.0
"2016-02-07 00:54:30",1352200,15.03,329,6.763,1.269,14.16,103.287,7.691,8.96,17.57,0,110.1,13.22,8.47,291.0
"2016-02-07 00:55:00",1352201,15.31,326.6,7.938,1.173,14.24,103.2873,7.692,8.96,17.65,0,110.1,13.22,8.47,288.6
"2016-02-07 00:55:30",1352202,14.53,331.9,6.763,1.177,14.76,103.2876,7.693,8.96,17.68,0,110.1,13.22,8.47,293.9
"2016-02-07 00:56:00",1352203,14.58,333.9,6.224,1.256,14.66,103.2885,7.695,8.98,17.71,0,110.1,13.23,8.47,295.9
"2016-02-07 00:56:30",1352204,14.4,331.5,6.147,1.27,14.59,103.2876,7.693,8.96,17.7,0,110.1,13.23,8.47,293.5
"2016-02-07 00:57:00",1352205,14.19,333.6,7.146,1.237,14.49,103.2891,7.696,8.94,17.69,0,110.1,13.21,8.48,295.6
"2016-02-07 00:57:30",1352206,13.83,337.6,6.729,1.302,14.83,103.2893,7.697,8.93,17.72,0,110.1,13.22,8.48,299.6
"2016-02-07 00:58:00",1352207,13.1,339.1,6.885,1.463,14.75,103.2873,7.692,8.94,17.74,0,110.1,13.21,8.47,301.1
"2016-02-07 00:58:30",1352208,11.54,332.4,7.165,1.272,12.48,103.2928,7.706,8.83,17.61,0,110.1,13.21,8.48,294.4
"2016-02-07 00:59:00",1352209,10.65,327.4,1.102,0.323,11.12,103.3019,7.729,8.71,17.48,0,110.1,13.26,8.51,289.4
"2016-02-07 00:59:30",1352210,11.68,331.1,5.58,1.162,12.6,103.3179,7.77,8.82,17.6,0,110.1,13.22,8.55,293.1
"2016-02-07 01:00:00",1352211,12.06,334,7.173,1.342,14.3,103.327,7.793,8.95,17.71,0,110.1,13.22,8.57,296.0
"2016-02-07 01:00:30",1352212,12.85,338.8,6.813,1.348,15.12,103.3297,7.8,9.04,17.8,0,110.1,13.23,8.58,300.8
"2016-02-07 01:01:00",1352213,12.83,342.9,6.754,1.239,15.11,103.3305,7.802,9.01,17.84,0,110.1,13.22,8.58,304.9
"2016-02-07 01:01:30",1352214,13.07,342.2,6.914,1.335,14.43,103.3317,7.805,8.99,17.84,0,110.1,13.23,8.58,304.2
"2016-02-07 01:02:00",1352215,11.88,336.4,7.178,1.503,13.41,103.343,7.834,8.9,17.73,0,110.1,13.23,8.61,298.4
"2016-02-07 01:02:30",1352216,11.28,332.4,4.405,0.869,11.46,103.3549,7.865,8.84,17.56,0,110.1,13.23,8.64,294.4
"2016-02-07 01:03:00",1352217,11.76,338.6,7.182,1.409,13.6,103.3668,7.895,8.97,17.55,0,110.1,13.23,8.67,300.6
"2016-02-07 01:03:30",1352218,11.25,336.6,6.521,1.364,13.96,103.3697,7.902,9.06,17.57,0,110.1,13.23,8.68,298.6
"2016-02-07 01:04:00",1352219,12.29,333.9,7.325,1.39,14.57,103.3714,7.907,9.04,17.49,0,110.1,13.23,8.69,295.9
"2016-02-07 01:04:30",1352220,12.46,335,6.948,1.499,14.62,103.3723,7.909,9.11,17.47,0,110.1,13.23,8.69,297.0
"2016-02-07 01:05:00",1352221,11.84,332.5,5.902,1.219,12.73,103.3741,7.914,9.05,17.46,0,110.1,13.23,8.69,294.5
"2016-02-07 01:05:30",1352222,12.15,332.8,8.35,1.423,12.74,103.3726,7.91,8.96,17.43,0,110.1,13.23,8.69,294.8
"2016-02-07 01:06:00",1352223,11.27,332.3,7.483,1.447,12.52,103.3761,7.919,8.97,17.45,0,110.1,13.23,8.70,294.3
"2016-02-07 01:06:30",1352224,11.77,338.6,7.004,1.362,13.76,103.3782,7.924,9.06,17.6,0,110.1,13.23,8.70,300.6
"2016-02-07 01:07:00",1352225,12.18,338.1,6.896,1.464,14.35,103.3793,7.927,9.09,17.73,0,110.1,13.24,8.71,300.1
"2016-02-07 01:07:30",1352226,11.86,339.1,7.017,1.376,14.86,103.379,7.926,9.09,17.81,0,110.1,13.23,8.71,301.1
"2016-02-07 01:08:00",1352227,11.17,332.6,8.33,1.401,13.12,103.3794,7.927,9.02,17.79,0,110.1,13.24,8.71,294.6
"2016-02-07 01:08:30",1352228,10.07,334.6,5.714,1.268,12.52,103.3759,7.918,8.95,17.75,0,110.1,13.24,8.70,296.6
"2016-02-07 01:09:00",1352229,9.92,328.5,4.889,1.817,12.29,103.3757,7.918,8.93,17.69,0,110.1,13.24,8.70,290.5
"2016-02-07 01:09:30",1352230,10.42,334.2,7.142,1.371,13.48,103.3715,7.907,9,17.78,0,110.1,13.24,8.69,296.2
"2016-02-07 01:10:00",1352231,10.79,335.1,7.553,1.297,14.86,103.3684,7.899,9.1,17.86,0,110,13.24,8.68,297.1
"2016-02-07 01:10:30",1352232,11.28,331.4,7.047,1.33,14.61,103.363,7.885,9.12,17.82,0,110.1,13.24,8.66,293.4
"2016-02-07 01:11:00",1352233,9.34,328.7,7.108,1.355,13.09,103.3616,7.882,9.01,17.82,0,110.1,13.24,8.66,290.7
"2016-02-07 01:11:30",1352234,9.09,333.5,7.396,1.209,13.07,103.3605,7.879,9.03,17.89,0,110.1,13.24,8.66,295.5
"2016-02-07 01:12:00",1352235,8.16,328.8,2.927,0.339,11.24,103.3543,7.863,8.85,17.83,0,110.1,13.28,8.64,290.8
"2016-02-07 01:12:30",1352236,9.66,336.9,6.991,1.283,14.78,103.3531,7.86,9.1,18.1,0,110.1,13.24,8.64,298.9
"2016-02-07 01:13:00",1352237,9.53,335.8,7.103,1.446,14.79,103.3521,7.857,9.07,18.08,0,110.1,13.24,8.64,297.8
"2016-02-07 01:13:30",1352238,10.23,338.7,6.773,1.498,14.67,103.3515,7.856,9.09,18.03,0,110.1,13.24,8.64,300.7
"2016-02-07 01:14:00",1352239,10.18,336.1,8.39,1.346,13.57,103.3518,7.857,8.99,17.89,0,110.1,13.23,8.64,298.1
"2016-02-07 01:14:30",1352240,10.01,332.7,6.722,1.7,12.6,103.3539,7.862,8.95,17.88,0,110.1,13.23,8.64,294.7
"2016-02-07 01:15:00",1352241,9.32,330.2,7.169,1.201,12.42,103.3539,7.862,8.91,17.88,0,110.1,13.23,8.64,292.2
"2016-02-07 01:15:30",1352242,10.38,337.9,8.4,1.438,14.62,103.3542,7.863,9.08,17.97,0,110.1,13.23,8.64,299.9
"2016-02-07 01:16:00",1352243,10.31,335.1,8.42,1.574,14.59,103.3542,7.863,9.05,17.88,0,110.1,13.23,8.64,297.1
"2016-02-07 01:16:30",1352244,10.23,339.2,8.95,1.434,14.7,103.3524,7.858,9.05,18.12,0,110.1,13.23,8.64,301.2
"2016-02-07 01:17:00",1352245,8.84,335.1,5.096,1.564,12.59,103.3548,7.864,8.97,18.08,0,110.1,13.23,8.64,297.1
"2016-02-07 01:17:30",1352246,9.32,328.3,11.12,1.261,12.19,103.3548,7.864,8.93,17.94,0,110.1,13.23,8.64,290.3
"2016-02-07 01:18:00",1352247,9.87,324.3,8.54,1.553,13.33,103.3582,7.873,8.94,17.67,0,110.1,13.23,8.65,286.3
"2016-02-07 01:18:30",1352248,11.47,324.5,8.19,1.403,14.66,103.3632,7.886,9.07,17.63,0,110.1,13.24,8.67,286.5
"2016-02-07 01:19:00",1352249,11.79,329.5,7.57,1.512,14.36,103.3657,7.892,9.07,17.48,0,110.1,13.24,8.67,291.5
"2016-02-07 01:19:30",1352250,10.98,339.8,9.88,1.897,15.11,103.3683,7.899,9.12,17.6,0,110.1,13.24,8.68,301.8
"2016-02-07 01:20:00",1352251,9.68,335.2,8.09,0.871,13.85,103.372,7.908,9.04,17.63,0,110.1,13.24,8.69,297.2
"2016-02-07 01:20:30",1352252,8.75,326,5.261,1.295,11.33,103.3763,7.919,8.87,17.36,0,110.1,13.24,8.70,288.0
"2016-02-07 01:21:00",1352253,7.568,335.4,6.733,0.61,11.67,103.3819,7.934,8.91,17.54,0,110.1,13.24,8.71,297.4
"2016-02-07 01:21:30",1352254,9.45,335,8.94,1.559,15.14,103.389,7.952,9.06,17.83,0,110.1,13.24,8.73,297.0
"2016-02-07 01:22:00",1352255,11.47,339.8,6.916,1.619,14.94,103.3898,7.954,9.12,17.69,0,110.1,13.24,8.73,301.8
"2016-02-07 01:22:30",1352256,12.24,336,8.83,1.591,14.25,103.3898,7.954,9.11,17.37,0,110,13.24,8.73,298.0
"2016-02-07 01:23:00",1352257,10.96,335.1,8.96,1.63,13.17,103.3898,7.954,9.09,17.22,0,110.1,13.24,8.73,297.1
"2016-02-07 01:23:30",1352258,8.67,330.3,8.49,1.789,12.42,103.3895,7.953,8.96,17.26,0,110.1,13.24,8.73,292.3
"2016-02-07 01:24:00",1352259,8.43,327.1,13.42,1.858,13.23,103.3898,7.954,9.01,17.38,0,110.1,13.24,8.73,289.1
"2016-02-07 01:24:30",1352260,11.86,334,7.898,1.658,13.99,103.3895,7.953,9.1,17.46,0,110.1,13.24,8.73,296.0
"2016-02-07 01:25:00",1352261,12.18,342.9,8.66,1.548,14.96,103.3898,7.954,9.15,17.52,0,110.1,13.24,8.73,304.9
"2016-02-07 01:25:30",1352262,11.88,336.5,9.68,1.864,13.95,103.3898,7.954,9.1,17.31,0,110.1,13.24,8.73,298.5
"2016-02-07 01:26:00",1352263,11.5,336.3,10.98,1.833,13.81,103.3901,7.955,9.09,17.29,0,110.1,13.24,8.73,298.3
"2016-02-07 01:26:30",1352264,10.53,345.5,6.705,1.702,13.65,103.3946,7.966,9.15,17.26,0,110.1,13.24,8.75,307.5
"2016-02-07 01:27:00",1352265,9.97,331.6,7.36,1.803,13.81,103.4048,7.992,9.05,17.2,0,110.1,13.24,8.77,293.6
"2016-02-07 01:27:30",1352266,9.33,351.4,6.435,2.302,13.69,103.4082,8,9.09,17.37,0,110.1,13.24,8.78,313.4
"2016-02-07 01:28:00",1352267,9.99,351.8,7.665,1.631,13.79,103.415,8.02,9.14,17.48,0,110.1,13.24,8.80,313.8
"2016-02-07 01:28:30",1352268,10.14,353,9.12,2.125,13.31,103.4223,8.04,9.01,17.21,0,110.1,13.24,8.82,315.0
"2016-02-07 01:29:00",1352269,9.59,332.8,12.93,1.624,14.01,103.4237,8.04,9.17,17.15,0,110.1,13.25,8.82,294.8
"2016-02-07 01:29:30",1352270,8.16,331.5,10.22,1.573,13.88,103.4254,8.04,9.18,17.19,0,110.1,13.25,8.83,293.5
"2016-02-07 01:30:00",1352271,8.04,343.7,8,1.206,13.49,103.4381,8.08,9.1,16.99,0,110.1,13.25,8.86,305.7
"2016-02-07 01:30:30",1352272,9.7,346.7,6.946,1.326,14.24,103.4398,8.08,9.18,17.14,0,110.1,13.24,8.86,308.7
"2016-02-07 01:31:00",1352273,9.18,340.3,10.12,2.007,13.24,103.4494,8.11,9.14,17.15,0,110.1,13.24,8.89,302.3
"2016-02-07 01:31:30",1352274,8.04,335,7.313,1.408,13.28,103.4576,8.13,9.22,17.16,0,110.1,13.24,8.91,297.0
"2016-02-07 01:32:00",1352275,8.61,327.3,8.59,1.583,13.41,103.4576,8.13,9.18,16.89,0,110.1,13.24,8.91,289.3
"2016-02-07 01:32:30",1352276,9.89,335.8,10.17,1.487,14.71,103.4576,8.13,9.28,16.88,0,110.1,13.24,8.91,297.8
"2016-02-07 01:33:00",1352277,8.93,338,9.44,1.455,14.5,103.4619,8.14,9.27,16.9,0,110.1,13.24,8.92,300.0
"2016-02-07 01:33:30",1352278,9.79,326.6,9.62,1.603,12.92,103.4709,8.16,9.22,16.7,0,110.1,13.24,8.94,288.6
"2016-02-07 01:34:00",1352279,11.12,326.3,10.23,1.49,14.05,103.4811,8.19,9.26,16.45,0,110.1,13.24,8.97,288.3
"2016-02-07 01:34:30",1352280,8.51,324.7,8.02,1.782,13.08,103.4881,8.21,9.27,16.6,0,110.1,13.24,8.99,286.7
"2016-02-07 01:35:00",1352281,9.18,337.7,8.15,1.843,14.49,103.4915,8.21,9.3,16.82,0,110.1,13.24,8.99,299.7
"2016-02-07 01:35:30",1352282,7.649,328.8,6.408,1.442,13.91,103.4915,8.21,9.33,17.17,0,110.1,13.24,8.99,290.8
"2016-02-07 01:36:00",1352283,6.777,332.1,4.662,1.224,12.88,103.4915,8.21,9.22,17.29,0,110.1,13.24,8.99,294.1
"2016-02-07 01:36:30",1352284,8.12,328.7,8.77,1.572,13.96,103.4966,8.23,9.28,16.95,0,110.1,13.25,9.01,290.7
"2016-02-07 01:37:00",1352285,10.26,332.1,7.911,1.646,13.96,103.5051,8.25,9.32,16.46,0,110.1,13.25,9.03,294.1
"2016-02-07 01:37:30",1352286,9.28,328.5,6.964,1.221,12.74,103.5082,8.26,9.32,16.38,0,110.1,13.25,9.04,290.5
"2016-02-07 01:38:00",1352287,10.42,335,7.153,1.459,14.8,103.5107,8.26,9.46,16.57,0,110.1,13.25,9.04,297.0
"2016-02-07 01:38:30",1352288,9.65,323.7,10.32,1.679,13.89,103.5172,8.28,9.31,16.41,0,110.1,13.25,9.06,285.7
"2016-02-07 01:39:00",1352289,8.99,324.6,9.5,1.569,14.43,103.5223,8.29,9.4,16.39,0,110.1,13.25,9.07,286.6
"2016-02-07 01:39:30",1352290,8.78,330.6,7.623,1.388,13.22,103.5249,8.3,9.33,16.37,0,110.1,13.25,9.08,292.6
"2016-02-07 01:40:00",1352291,9.09,328.2,10.17,1.16,14.12,103.5254,8.3,9.43,16.46,0,110.1,13.25,9.08,290.2
"2016-02-07 01:40:30",1352292,7.397,329.1,6.52,1.632,13.49,103.5254,8.3,9.33,16.36,0,110.1,13.25,9.08,291.1
"2016-02-07 01:41:00",1352293,8.11,334.4,7.584,1.55,13.46,103.5254,8.3,9.41,16.3,0,110.1,13.25,9.08,296.4
"2016-02-07 01:41:30",1352294,8.37,338.8,7.061,1.542,14.91,103.526,8.3,9.45,15.74,0,110.1,13.25,9.08,300.8
"2016-02-07 01:42:00",1352295,5.861,338.1,9.2,1.572,13.87,103.5376,8.33,9.35,15.31,0,110.1,13.25,9.11,300.1
"2016-02-07 01:42:30",1352296,4.527,327.2,7.092,1.222,12.89,103.5483,8.36,9.39,15.41,0,110.1,13.25,9.14,289.2
"2016-02-07 01:43:00",1352297,5.857,320.7,8.82,1.044,12.16,103.5568,8.38,9.31,15.51,0,110.1,13.25,9.16,282.7
"2016-02-07 01:43:30",1352298,6.307,328.8,7.82,1.39,13.28,103.5593,8.39,9.49,15.73,0,110.1,13.25,9.17,290.8
"2016-02-07 01:44:00",1352299,7.97,325.5,8.4,1.34,12.84,103.5593,8.39,9.41,15.79,0,110.1,13.25,9.17,287.5
"2016-02-07 01:44:30",1352300,8.02,328.6,8.4,1.18,14.59,103.5593,8.39,9.47,15.93,0,110.1,13.25,9.17,290.6
"2016-02-07 01:45:00",1352301,7.919,318.6,6.917,1.197,13.93,103.5593,8.39,9.5,15.96,0,110.1,13.25,9.17,280.6
"2016-02-07 01:45:30",1352302,7.451,322.8,7.911,1.652,13.6,103.5593,8.39,9.46,15.86,0,110.1,13.25,9.17,284.8
"2016-02-07 01:46:00",1352303,7.176,317.6,5.879,1.553,12.36,103.5593,8.39,9.44,15.85,0,110.1,13.25,9.17,279.6
"2016-02-07 01:46:30",1352304,10.01,319.4,7.137,1.405,12.89,103.5593,8.39,9.54,15.86,0,110.1,13.25,9.17,281.4
"2016-02-07 01:47:00",1352305,9.31,318.6,7.544,1.969,13.38,103.5593,8.39,9.53,15.84,0,110.1,13.25,9.17,280.6
"2016-02-07 01:47:30",1352306,8.67,321.9,7.953,1.48,14.69,103.5593,8.39,9.56,15.84,0,110.1,13.24,9.17,283.9
"2016-02-07 01:48:00",1352307,7.448,320.7,10.28,1.533,13.79,103.5593,8.39,9.51,15.81,0,110.1,13.24,9.17,282.7
"2016-02-07 01:48:30",1352308,5.478,313.7,7.804,1.455,12.77,103.559,8.39,9.47,15.86,0,110.1,13.24,9.17,275.7
"2016-02-07 01:49:00",1352309,4.973,315.2,4.513,1.122,11.77,103.552,8.37,9.44,15.91,0,110.1,13.24,9.15,277.2
"2016-02-07 01:49:30",1352310,6.307,320.3,6.957,1.239,13.04,103.5469,8.36,9.45,15.92,0,110.1,13.24,9.14,282.3